VLG8946 LEVC-EGKK

Flight info

Callsign VLG8946
Flight time N/A
Altitude 36000
Route SOPET N608 MATEX Z475 OSLAP Y90 USKAR N863 GIROM DCT AGN DCT SECHE DCT UVELI DCT CNA DCT MANAK UY110 REVTU UP88 VASUX
Aircraft A320/M-SDE3FGHIRWY/LB1

Departure

Time 2026-04-28 15:39
Airport Valencia Airport (LEVC)

Arrival

Time N/A
Airport London Gatwick Airport (EGKK)
Time Latitude Longitude Altitude Speed Heading
2026-04-28 15:16 39.49015 -0.47226 197 ft 0 kts 17°
2026-04-28 15:29 39.49008 -0.47229 196 ft 4 kts 18°
2026-04-28 15:29 39.48983 -0.47241 201 ft 4 kts 19°
2026-04-28 15:29 39.48961 -0.47247 198 ft 4 kts 324°
2026-04-28 15:30 39.48956 -0.47243 200 ft 0 kts 295°
2026-04-28 15:31 39.48957 -0.47249 197 ft 3 kts 285°
2026-04-28 15:32 39.48960 -0.47282 194 ft 8 kts 273°
2026-04-28 15:32 39.48964 -0.47376 206 ft 11 kts 276°
2026-04-28 15:32 39.48991 -0.47458 210 ft 10 kts 300°
2026-04-28 15:32 39.49025 -0.47535 199 ft 11 kts 296°
2026-04-28 15:33 39.49057 -0.47637 205 ft 13 kts 282°
2026-04-28 15:33 39.49045 -0.47749 209 ft 13 kts 258°
2026-04-28 15:33 39.49028 -0.47863 206 ft 13 kts 269°
2026-04-28 15:33 39.49062 -0.47977 205 ft 15 kts 296°
2026-04-28 15:34 39.49111 -0.48104 214 ft 16 kts 296°
2026-04-28 15:34 39.49161 -0.48235 211 ft 16 kts 296°
2026-04-28 15:34 39.49209 -0.48362 216 ft 16 kts 296°
2026-04-28 15:34 39.49257 -0.48488 216 ft 15 kts 296°
2026-04-28 15:35 39.49304 -0.48610 220 ft 15 kts 296°
2026-04-28 15:35 39.49404 -0.48873 221 ft 17 kts 296°
2026-04-28 15:35 39.49459 -0.49018 223 ft 19 kts 297°
2026-04-28 15:36 39.49521 -0.49178 224 ft 20 kts 296°
2026-04-28 15:36 39.49583 -0.49342 227 ft 21 kts 296°
2026-04-28 15:36 39.49647 -0.49510 232 ft 21 kts 296°
2026-04-28 15:36 39.49710 -0.49677 235 ft 21 kts 296°
2026-04-28 15:37 39.49772 -0.49842 241 ft 18 kts 295°
2026-04-28 15:37 39.49788 -0.49953 256 ft 11 kts 238°
2026-04-28 15:37 39.49721 -0.50002 247 ft 11 kts 206°
2026-04-28 15:37 39.49645 -0.50022 246 ft 13 kts 152°
2026-04-28 15:38 39.49612 -0.49947 243 ft 0 kts 116°
2026-04-28 15:38 39.49570 -0.49835 240 ft 46 kts 116°
2026-04-28 15:38 39.49320 -0.49177 225 ft 112 kts 116°
2026-04-28 15:38 39.48916 -0.48090 216 ft 158 kts 115°
2026-04-28 15:39 39.48389 -0.46803 710 ft 163 kts 116°
2026-04-28 15:39 39.47857 -0.45509 1441 ft 161 kts 116°
2026-04-28 15:39 39.47326 -0.44233 2079 ft 164 kts 121°
2026-04-28 15:39 39.46634 -0.42939 2414 ft 186 kts 126°
2026-04-28 15:40 39.45787 -0.41521 2756 ft 211 kts 127°
2026-04-28 15:40 39.44821 -0.39949 3193 ft 236 kts 128°
2026-04-28 15:40 39.43755 -0.38216 3779 ft 253 kts 128°
2026-04-28 15:40 39.42679 -0.36381 4685 ft 259 kts 122°
2026-04-28 15:41 39.42095 -0.34153 5588 ft 268 kts 96°
2026-04-28 15:41 39.42350 -0.31773 6449 ft 278 kts 69°
2026-04-28 15:41 39.43484 -0.29730 7251 ft 287 kts 39°
2026-04-28 15:41 39.45199 -0.28356 8035 ft 293 kts 29°
2026-04-28 15:42 39.46996 -0.27068 8881 ft 297 kts 28°
2026-04-28 15:42 39.48821 -0.25763 9692 ft 303 kts 28°
2026-04-28 15:42 39.50680 -0.24429 10410 ft 309 kts 28°
2026-04-28 15:42 39.52575 -0.23060 11108 ft 314 kts 28°
2026-04-28 15:43 39.54499 -0.21664 11822 ft 320 kts 28°
2026-04-28 15:43 39.56456 -0.20244 12508 ft 325 kts 28°
2026-04-28 15:43 39.58422 -0.18808 13206 ft 331 kts 28°
2026-04-28 15:43 39.60434 -0.17334 13921 ft 335 kts 28°
2026-04-28 15:44 39.62474 -0.15838 14560 ft 339 kts 28°
2026-04-28 15:44 39.64533 -0.14328 15227 ft 342 kts 28°
2026-04-28 15:44 39.66613 -0.12805 15874 ft 345 kts 28°
2026-04-28 15:44 39.68715 -0.11262 16529 ft 348 kts 28°
2026-04-28 15:45 39.70835 -0.09708 17185 ft 351 kts 28°
2026-04-28 15:45 39.72972 -0.08139 17838 ft 355 kts 28°
2026-04-28 15:45 39.75101 -0.06571 18450 ft 358 kts 28°
2026-04-28 15:45 39.77273 -0.04970 19018 ft 360 kts 28°
2026-04-28 15:46 39.79459 -0.03361 19598 ft 362 kts 28°
2026-04-28 15:46 39.81660 -0.01743 20190 ft 364 kts 27°
2026-04-28 15:46 39.83958 -0.00339 20743 ft 366 kts 19°
2026-04-28 15:46 39.86386 0.00652 21251 ft 367 kts 14°
2026-04-28 15:47 39.88861 0.01557 21784 ft 370 kts 14°
2026-04-28 15:47 39.91341 0.02472 22318 ft 372 kts 14°
2026-04-28 15:47 39.93838 0.03400 22854 ft 374 kts 15°
2026-04-28 15:47 39.96318 0.04323 23382 ft 376 kts 15°
2026-04-28 15:48 39.98840 0.05263 23855 ft 378 kts 15°
2026-04-28 15:48 40.01379 0.06206 24305 ft 380 kts 15°
2026-04-28 15:48 40.03927 0.07153 24756 ft 382 kts 15°
2026-04-28 15:48 40.06494 0.08106 25186 ft 384 kts 15°
2026-04-28 15:49 40.09069 0.09064 25638 ft 386 kts 15°
2026-04-28 15:49 40.11658 0.10027 26068 ft 388 kts 15°
2026-04-28 15:49 40.14254 0.10997 26507 ft 390 kts 15°
2026-04-28 15:49 40.16833 0.11965 26932 ft 391 kts 15°
2026-04-28 15:50 40.19456 0.12948 27356 ft 393 kts 14°
2026-04-28 15:50 40.22088 0.13931 27781 ft 395 kts 14°
2026-04-28 15:50 40.24734 0.14923 28199 ft 396 kts 14°
2026-04-28 15:50 40.27393 0.15919 28593 ft 400 kts 14°
2026-04-28 15:51 40.30080 0.16923 28948 ft 403 kts 14°
2026-04-28 15:51 40.32783 0.17933 29416 ft 404 kts 14°
2026-04-28 15:51 40.35484 0.18946 29950 ft 403 kts 14°
2026-04-28 15:51 40.38136 0.19945 30430 ft 401 kts 14°
2026-04-28 15:52 40.40813 0.20953 30872 ft 400 kts 14°
2026-04-28 15:52 40.43501 0.21962 31123 ft 406 kts 14°
2026-04-28 15:52 40.46239 0.22990 31273 ft 413 kts 14°
2026-04-28 15:52 40.49018 0.24037 31531 ft 417 kts 14°
2026-04-28 15:53 40.51824 0.25095 31807 ft 421 kts 13°
2026-04-28 15:53 40.54642 0.26195 32093 ft 425 kts 17°
2026-04-28 15:53 40.57376 0.27711 32436 ft 428 kts 25°
2026-04-28 15:53 40.60021 0.29538 32752 ft 430 kts 26°
2026-04-28 15:54 40.62676 0.31376 33115 ft 432 kts 26°
2026-04-28 15:54 40.65303 0.33189 33418 ft 434 kts 25°
2026-04-28 15:54 40.67977 0.35036 33761 ft 435 kts 25°
2026-04-28 15:54 40.70663 0.36895 34053 ft 437 kts 25°
2026-04-28 15:55 40.73355 0.38755 34339 ft 438 kts 26°
2026-04-28 15:55 40.76054 0.40622 34664 ft 438 kts 26°
2026-04-28 15:55 40.78756 0.42496 34938 ft 440 kts 26°
2026-04-28 15:55 40.81473 0.44382 35185 ft 442 kts 26°
2026-04-28 15:56 40.84199 0.46277 35428 ft 444 kts 26°
2026-04-28 15:56 40.86877 0.48141 35835 ft 441 kts 26°
2026-04-28 15:56 40.89606 0.50040 35938 ft 447 kts 26°
2026-04-28 15:56 40.92382 0.51971 35943 ft 455 kts 26°
2026-04-28 15:57 40.98066 0.55933 35946 ft 467 kts 26°
2026-04-28 15:57 41.03825 0.59964 35937 ft 469 kts 26°
2026-04-28 15:58 41.09594 0.64001 35940 ft 469 kts 26°
2026-04-28 15:58 41.15483 0.67496 35951 ft 466 kts 14°
2026-04-28 15:59 41.21707 0.69907 35938 ft 466 kts 14°
2026-04-28 15:59 41.27934 0.72331 35935 ft 467 kts 14°
2026-04-28 16:00 41.34168 0.74768 35948 ft 467 kts 14°
2026-04-28 16:00 41.40395 0.77206 35953 ft 467 kts 14°
2026-04-28 16:01 41.46579 0.79640 35949 ft 466 kts 14°
2026-04-28 16:01 41.52795 0.82076 35932 ft 466 kts 14°
2026-04-28 16:02 41.59013 0.84529 35938 ft 466 kts 14°
2026-04-28 16:02 41.65228 0.86993 35937 ft 466 kts 14°
2026-04-28 16:03 41.71398 0.89439 35929 ft 466 kts 14°
2026-04-28 16:03 41.77615 0.91900 35949 ft 466 kts 14°
2026-04-28 16:04 41.83839 0.94372 35927 ft 467 kts 14°
2026-04-28 16:04 41.90066 0.96852 35921 ft 467 kts 14°
2026-04-28 16:05 41.96254 0.99323 35914 ft 467 kts 14°
2026-04-28 16:05 42.02485 1.01810 35916 ft 467 kts 14°
2026-04-28 16:06 42.08721 1.04307 35913 ft 467 kts 14°
2026-04-28 16:06 42.15037 1.06161 35919 ft 463 kts
2026-04-28 16:07 42.21385 1.05835 35959 ft 459 kts 352°
2026-04-28 16:08 42.30942 1.04795 35964 ft 459 kts 352°
2026-04-28 16:08 42.37311 1.04115 35968 ft 460 kts 352°
2026-04-28 16:09 42.46878 1.03064 35978 ft 460 kts 352°
2026-04-28 16:10 42.56400 1.02028 35978 ft 460 kts 352°
2026-04-28 16:10 42.65968 1.00994 35987 ft 460 kts 352°
2026-04-28 16:11 42.78662 0.99598 35986 ft 459 kts 352°
2026-04-28 16:12 42.88204 0.98544 35983 ft 458 kts 352°
2026-04-28 16:13 42.97737 0.97500 35982 ft 458 kts 352°
2026-04-28 16:14 43.10408 0.96099 35980 ft 458 kts 352°
2026-04-28 16:15 43.23106 0.94682 35982 ft 458 kts 352°
2026-04-28 16:15 43.29467 0.93978 35950 ft 459 kts 352°
2026-04-28 16:16 43.39000 0.92907 35941 ft 461 kts 352°
2026-04-28 16:17 43.48607 0.91824 35949 ft 463 kts 352°
2026-04-28 16:17 43.55039 0.91103 35941 ft 465 kts 352°
2026-04-28 16:18 43.61490 0.90386 35945 ft 466 kts 352°
2026-04-28 16:18 43.67912 0.89659 35955 ft 466 kts 352°
2026-04-28 16:19 43.74391 0.88926 35955 ft 467 kts 352°
2026-04-28 16:19 43.80875 0.88186 35961 ft 468 kts 352°
2026-04-28 16:20 43.87300 0.87267 35974 ft 465 kts 344°
2026-04-28 16:20 43.93320 0.84386 35975 ft 456 kts 330°
2026-04-28 16:21 43.99077 0.80665 35976 ft 456 kts 330°
2026-04-28 16:21 44.04839 0.76953 35997 ft 456 kts 330°
2026-04-28 16:22 44.10557 0.73257 36006 ft 455 kts 330°
2026-04-28 16:22 44.16292 0.69537 36001 ft 455 kts 329°
2026-04-28 16:23 44.22020 0.65811 35996 ft 454 kts 329°
2026-04-28 16:23 44.27733 0.62087 36004 ft 453 kts 329°
2026-04-28 16:24 44.33440 0.58365 36010 ft 452 kts 329°
2026-04-28 16:24 44.39097 0.54659 36008 ft 452 kts 329°
2026-04-28 16:25 44.44793 0.50925 36028 ft 452 kts 329°
2026-04-28 16:25 44.50475 0.47168 36016 ft 451 kts 329°
2026-04-28 16:26 44.56142 0.43399 36002 ft 451 kts 329°
2026-04-28 16:26 44.61774 0.39649 36010 ft 451 kts 329°
2026-04-28 16:27 44.67432 0.35874 36006 ft 450 kts 329°
2026-04-28 16:28 44.75921 0.30201 35995 ft 450 kts 329°
2026-04-28 16:28 44.81578 0.26411 35991 ft 450 kts 329°
2026-04-28 16:29 44.90028 0.20728 35989 ft 451 kts 329°
2026-04-28 16:30 44.98532 0.15004 35987 ft 451 kts 329°
2026-04-28 16:30 45.04176 0.11189 36001 ft 449 kts 328°
2026-04-28 16:31 45.09800 0.07366 35986 ft 449 kts 328°
2026-04-28 16:31 45.15391 0.03569 35981 ft 448 kts 328°
2026-04-28 16:32 45.21015 -0.00254 36007 ft 448 kts 328°
2026-04-28 16:32 45.29446 -0.06013 35972 ft 448 kts 328°
2026-04-28 16:33 45.34111 -0.09212 35968 ft 448 kts 328°
2026-04-28 16:33 45.40646 -0.13691 35973 ft 449 kts 328°
2026-04-28 16:34 45.46273 -0.17559 35964 ft 449 kts 328°
2026-04-28 16:34 45.51898 -0.21436 35960 ft 450 kts 328°
2026-04-28 16:35 45.57530 -0.25325 35960 ft 450 kts 328°
2026-04-28 16:35 45.63135 -0.29188 35975 ft 450 kts 328°
2026-04-28 16:36 45.68375 -0.33851 35970 ft 440 kts 315°
2026-04-28 16:36 45.73173 -0.39288 35966 ft 440 kts 316°
2026-04-28 16:37 45.77984 -0.44721 35980 ft 440 kts 316°
2026-04-28 16:38 45.85174 -0.52841 35978 ft 441 kts 316°
2026-04-28 16:38 45.89986 -0.58305 35977 ft 441 kts 316°
2026-04-28 16:39 45.94800 -0.63776 35980 ft 441 kts 316°
2026-04-28 16:39 45.99579 -0.69226 35999 ft 441 kts 316°
2026-04-28 16:40 46.04384 -0.74718 35993 ft 441 kts 316°
2026-04-28 16:40 46.09180 -0.80221 36009 ft 441 kts 316°
2026-04-28 16:41 46.13978 -0.85726 36000 ft 440 kts 316°
2026-04-28 16:41 46.18734 -0.91191 36001 ft 440 kts 316°
2026-04-28 16:42 46.23513 -0.96702 35980 ft 439 kts 316°
2026-04-28 16:42 46.28289 -1.02209 35973 ft 439 kts 316°
2026-04-28 16:43 46.33059 -1.07733 35977 ft 439 kts 315°
2026-04-28 16:43 46.37822 -1.13272 35998 ft 439 kts 315°
2026-04-28 16:44 46.42550 -1.18779 36011 ft 439 kts 315°
2026-04-28 16:44 46.47310 -1.24339 36013 ft 439 kts 316°
2026-04-28 16:45 46.52064 -1.29898 36007 ft 439 kts 316°
2026-04-28 16:45 46.56822 -1.35473 36023 ft 439 kts 316°
2026-04-28 16:46 46.61853 -1.40479 35990 ft 448 kts 329°
2026-04-28 16:46 46.67480 -1.44438 35979 ft 449 kts 329°
2026-04-28 16:47 46.73107 -1.48418 35978 ft 450 kts 329°
2026-04-28 16:47 46.78735 -1.52434 35985 ft 450 kts 328°
2026-04-28 16:48 46.84337 -1.56402 35995 ft 452 kts 332°
2026-04-28 16:48 46.90495 -1.58706 36005 ft 465 kts 351°
2026-04-28 16:49 46.96960 -1.59341 36036 ft 466 kts 352°
2026-04-28 16:49 47.03438 -1.59989 36037 ft 467 kts 352°
2026-04-28 16:50 47.09876 -1.60648 36044 ft 467 kts 351°
2026-04-28 16:50 47.16362 -1.61316 36013 ft 467 kts 351°
2026-04-28 16:51 47.22835 -1.62110 36026 ft 467 kts 351°
2026-04-28 16:51 47.29299 -1.63040 36027 ft 466 kts 351°
2026-04-28 16:52 47.35713 -1.63961 36035 ft 467 kts 351°
2026-04-28 16:52 47.42176 -1.64860 36057 ft 466 kts 352°
2026-04-28 16:53 47.48633 -1.65771 36062 ft 466 kts 352°
2026-04-28 16:53 47.55085 -1.66691 36068 ft 465 kts 352°
2026-04-28 16:54 47.61486 -1.67615 36088 ft 465 kts 352°
2026-04-28 16:54 47.67920 -1.68536 36078 ft 464 kts 352°
2026-04-28 16:55 47.74340 -1.69451 36076 ft 463 kts 352°
2026-04-28 16:55 47.80746 -1.70374 36086 ft 462 kts 352°
2026-04-28 16:56 47.87144 -1.71301 36085 ft 462 kts 352°
2026-04-28 16:56 47.93499 -1.72220 36081 ft 462 kts 353°
2026-04-28 16:57 47.99893 -1.73148 36078 ft 461 kts 352°
2026-04-28 16:57 48.06281 -1.74067 36080 ft 461 kts 354°
2026-04-28 16:58 48.12711 -1.74245 36077 ft 462 kts 357°
2026-04-28 16:58 48.19136 -1.74323 36079 ft 462 kts 358°
2026-04-28 16:59 48.25519 -1.74391 36089 ft 462 kts 359°
2026-04-28 16:59 48.31946 -1.74464 36097 ft 461 kts 358°
2026-04-28 17:00 48.38363 -1.74550 36112 ft 461 kts 358°
2026-04-28 17:00 48.44778 -1.74627 36126 ft 461 kts 359°
2026-04-28 17:01 48.51190 -1.74692 36138 ft 460 kts 359°
2026-04-28 17:01 48.57547 -1.74775 36148 ft 460 kts 359°
2026-04-28 17:02 48.63943 -1.74859 36155 ft 460 kts 359°
2026-04-28 17:02 48.70333 -1.74939 36155 ft 459 kts 360°
2026-04-28 17:03 48.79860 -1.75051 36162 ft 458 kts 360°
2026-04-28 17:03 48.86241 -1.75136 36171 ft 458 kts 360°
2026-04-28 17:04 48.95804 -1.75147 36162 ft 459 kts
2026-04-28 17:05 49.05348 -1.74693 36161 ft 460 kts
2026-04-28 17:06 49.14942 -1.74272 36182 ft 459 kts
2026-04-28 17:06 49.24523 -1.73927 36192 ft 459 kts
2026-04-28 17:07 49.30902 -1.73688 36200 ft 458 kts
2026-04-28 17:07 49.37229 -1.73443 36208 ft 458 kts
2026-04-28 17:08 49.43588 -1.73196 36210 ft 457 kts
2026-04-28 17:08 49.49946 -1.72939 36202 ft 457 kts
2026-04-28 17:09 49.56294 -1.72698 36198 ft 456 kts
2026-04-28 17:09 49.62446 -1.71084 36198 ft 450 kts 20°
2026-04-28 17:10 49.68340 -1.67819 36195 ft 450 kts 21°
2026-04-28 17:10 49.74233 -1.64566 36193 ft 450 kts 21°
2026-04-28 17:11 49.80109 -1.61316 36206 ft 448 kts 21°
2026-04-28 17:11 49.85937 -1.58075 36214 ft 447 kts 21°
2026-04-28 17:12 49.91779 -1.54813 36226 ft 446 kts 21°
2026-04-28 17:12 49.97519 -1.51210 35858 ft 444 kts 31°
2026-04-28 17:13 50.00203 -1.48871 35345 ft 441 kts 31°
2026-04-28 17:13 50.02858 -1.46502 34793 ft 439 kts 32°
2026-04-28 17:13 50.05490 -1.44126 33877 ft 435 kts 32°
2026-04-28 17:13 50.08113 -1.41753 32620 ft 439 kts 32°
2026-04-28 17:14 50.10764 -1.39363 31381 ft 442 kts 32°
2026-04-28 17:14 50.13444 -1.36954 29570 ft 449 kts 32°
2026-04-28 17:14 50.16149 -1.34533 27981 ft 447 kts 32°
2026-04-28 17:14 50.18793 -1.32178 26609 ft 441 kts 32°
2026-04-28 17:15 50.21422 -1.29839 25604 ft 427 kts 33°
2026-04-28 17:15 50.23960 -1.27577 25345 ft 412 kts 33°
2026-04-28 17:15 50.26449 -1.25345 24448 ft 414 kts 33°
2026-04-28 17:15 50.28931 -1.23108 23862 ft 409 kts 33°
2026-04-28 17:16 50.31376 -1.20906 23194 ft 400 kts 33°
2026-04-28 17:16 50.33731 -1.18783 22670 ft 386 kts 33°
2026-04-28 17:16 50.36036 -1.16694 22116 ft 380 kts 33°
2026-04-28 17:16 50.38313 -1.14627 21607 ft 376 kts 34°
2026-04-28 17:17 50.40559 -1.12589 21104 ft 371 kts 34°
2026-04-28 17:17 50.42781 -1.10577 20595 ft 366 kts 34°
2026-04-28 17:17 50.44947 -1.08617 20141 ft 361 kts 34°
2026-04-28 17:17 50.47108 -1.06657 19661 ft 357 kts 34°
2026-04-28 17:18 50.49241 -1.04720 19187 ft 353 kts 34°
2026-04-28 17:18 50.51354 -1.02797 18710 ft 349 kts 34°
2026-04-28 17:18 50.53445 -1.00893 18183 ft 345 kts 34°
2026-04-28 17:18 50.55491 -0.99030 17951 ft 332 kts 34°
2026-04-28 17:19 50.57414 -0.97282 17720 ft 309 kts 34°
2026-04-28 17:19 50.59245 -0.95617 17157 ft 301 kts 35°
2026-04-28 17:19 50.61059 -0.93955 16375 ft 300 kts 34°
2026-04-28 17:19 50.62846 -0.92315 15861 ft 296 kts 34°
2026-04-28 17:20 50.64626 -0.90676 15375 ft 296 kts 34°
2026-04-28 17:20 50.65799 -0.89594 15073 ft 293 kts 35°
2026-04-28 17:20 50.68158 -0.87424 14577 ft 293 kts 34°
2026-04-28 17:20 50.69898 -0.85829 14115 ft 293 kts 35°
2026-04-28 17:21 50.71647 -0.84229 13611 ft 288 kts 35°
2026-04-28 17:21 50.73372 -0.82644 13313 ft 287 kts 34°
2026-04-28 17:21 50.75094 -0.81053 13210 ft 286 kts 35°
2026-04-28 17:22 50.78526 -0.77856 13225 ft 286 kts 38°
2026-04-28 17:22 50.80017 -0.75833 13225 ft 279 kts 53°
2026-04-28 17:22 50.81088 -0.73320 13223 ft 275 kts 66°
2026-04-28 17:23 50.82050 -0.67511 13224 ft 273 kts 81°
2026-04-28 17:23 50.82386 -0.64592 13223 ft 273 kts 81°
2026-04-28 17:23 50.82732 -0.61628 13223 ft 275 kts 81°
2026-04-28 17:23 50.83079 -0.58663 13222 ft 274 kts 81°
2026-04-28 17:24 50.83421 -0.55710 13223 ft 273 kts 81°
2026-04-28 17:24 50.83762 -0.52747 13222 ft 274 kts 81°
2026-04-28 17:24 50.84101 -0.49814 13122 ft 267 kts 81°
2026-04-28 17:24 50.84422 -0.47031 12986 ft 248 kts 81°
2026-04-28 17:25 50.84724 -0.44411 12765 ft 239 kts 81°
2026-04-28 17:25 50.85311 -0.39316 12120 ft 232 kts 81°
2026-04-28 17:25 50.85596 -0.36819 11644 ft 230 kts 81°
2026-04-28 17:26 50.85880 -0.34332 11170 ft 229 kts 80°
2026-04-28 17:26 50.86158 -0.31894 10728 ft 227 kts 80°
2026-04-28 17:26 50.86434 -0.29443 10310 ft 225 kts 80°
2026-04-28 17:26 50.86709 -0.26999 10009 ft 225 kts 80°
2026-04-28 17:27 50.86982 -0.24568 9708 ft 225 kts 80°
2026-04-28 17:27 50.87255 -0.22137 9426 ft 223 kts 80°
2026-04-28 17:27 50.87522 -0.19738 9253 ft 219 kts 80°
2026-04-28 17:27 50.87789 -0.17348 9216 ft 221 kts 80°
2026-04-28 17:28 50.88060 -0.14929 9214 ft 224 kts 81°
2026-04-28 17:28 50.88845 -0.10205 8968 ft 224 kts 56°
2026-04-28 17:28 50.90067 -0.08677 8673 ft 232 kts 25°
2026-04-28 17:29 50.91669 -0.08419 8378 ft 244 kts 355°
2026-04-28 17:29 50.93220 -0.09600 8220 ft 257 kts 322°
2026-04-28 17:29 50.94239 -0.11975 8222 ft 268 kts 291°
2026-04-28 17:30 50.95023 -0.17820 8221 ft 273 kts 281°
2026-04-28 17:30 50.95661 -0.23752 8223 ft 272 kts 281°
2026-04-28 17:30 50.95981 -0.26708 8222 ft 272 kts 281°
2026-04-28 17:31 50.96300 -0.29665 8225 ft 272 kts 281°
2026-04-28 17:31 50.96936 -0.35589 8227 ft 271 kts 281°
2026-04-28 17:32 50.97563 -0.41446 8225 ft 272 kts 281°
2026-04-28 17:32 50.97878 -0.44383 7995 ft 270 kts 281°
2026-04-28 17:32 50.98191 -0.47319 7703 ft 269 kts 281°
2026-04-28 17:32 50.98508 -0.50201 7573 ft 260 kts 285°
2026-04-28 17:33 50.99272 -0.52666 7444 ft 243 kts 318°
2026-04-28 17:33 51.00608 -0.54084 7275 ft 225 kts 346°
2026-04-28 17:33 51.02079 -0.54859 7032 ft 222 kts 350°
2026-04-28 17:33 51.03059 -0.55310 6852 ft 222 kts 351°
2026-04-28 17:34 51.05047 -0.56181 6409 ft 224 kts 355°
2026-04-28 17:34 51.06563 -0.56289 6069 ft 213 kts 15°
2026-04-28 17:34 51.07938 -0.55657 5744 ft 200 kts 32°
2026-04-28 17:34 51.09061 -0.54456 5406 ft 190 kts 47°
2026-04-28 17:35 51.09868 -0.52870 5074 ft 182 kts 62°
2026-04-28 17:35 51.10336 -0.51060 4755 ft 174 kts 76°
2026-04-28 17:35 51.10597 -0.49213 4430 ft 169 kts 76°
2026-04-28 17:35 51.10853 -0.47405 4072 ft 167 kts 75°
2026-04-28 17:36 51.11110 -0.45586 3617 ft 170 kts 75°
2026-04-28 17:36 51.11368 -0.43754 3244 ft 169 kts 74°
2026-04-28 17:36 51.11620 -0.41953 2966 ft 165 kts 73°
2026-04-28 17:36 51.11867 -0.40192 2737 ft 162 kts 73°
2026-04-28 17:37 51.12113 -0.38442 2512 ft 161 kts 73°
2026-04-28 17:37 51.12351 -0.36739 2293 ft 158 kts 73°
2026-04-28 17:37 51.12577 -0.35112 2091 ft 144 kts 73°
2026-04-28 17:37 51.12795 -0.33560 1886 ft 143 kts 73°
2026-04-28 17:38 51.13010 -0.32020 1691 ft 143 kts 74°
2026-04-28 17:38 51.13225 -0.30480 1495 ft 140 kts 72°
2026-04-28 17:38 51.13421 -0.29060 1314 ft 125 kts 73°
2026-04-28 17:38 51.13597 -0.27799 1137 ft 120 kts 72°